TimeCST,TemperatureF,Dew PointF,Humidity,Sea Level PressureIn,VisibilityMPH,Wind Direction,Wind SpeedMPH,Gust SpeedMPH,PrecipitationIn,Events,Conditions,WindDirDegrees,DateUTC
12:54 AM,19.9,7.0,57,30.25,10.0,NE,4.6,-,N/A,,Partly Cloudy,50,2014-01-22 06:54:00
1:54 AM,19.0,9.0,65,30.23,10.0,East,6.9,-,N/A,,Clear,100,2014-01-22 07:54:00
2:54 AM,19.9,9.0,62,30.22,10.0,ESE,9.2,-,N/A,,Partly Cloudy,110,2014-01-22 08:54:00
3:54 AM,19.0,9.0,65,30.22,10.0,Calm,Calm,-,N/A,,Clear,0,2014-01-22 09:54:00
4:54 AM,18.0,9.0,68,30.22,10.0,South,3.5,-,N/A,,Partly Cloudy,170,2014-01-22 10:54:00
5:54 AM,18.0,9.0,68,30.23,10.0,SSW,3.5,-,N/A,,Clear,200,2014-01-22 11:54:00
6:54 AM,18.0,10.0,71,30.23,10.0,Calm,Calm,-,N/A,,Partly Cloudy,0,2014-01-22 12:54:00
6:57 AM,17.6,10.4,73,30.21,10.0,South,3.5,-,N/A,,Scattered Clouds,190,2014-01-22 12:57:00
7:54 AM,19.4,10.4,68,30.23,10.0,South,5.8,-,N/A,,Scattered Clouds,170,2014-01-22 13:54:00
8:54 AM,23.0,10.9,60,30.24,10.0,South,8.1,-,N/A,,Partly Cloudy,170,2014-01-22 14:54:00
9:54 AM,27.0,9.0,47,30.24,10.0,SSW,6.9,-,N/A,,Partly Cloudy,210,2014-01-22 15:54:00
10:54 AM,30.9,10.0,42,30.22,10.0,West,5.8,-,N/A,,Partly Cloudy,270,2014-01-22 16:54:00
11:54 AM,33.1,10.9,40,30.19,10.0,WSW,10.4,-,N/A,,Scattered Clouds,250,2014-01-22 17:54:00
12:54 PM,34.0,12.0,40,30.16,10.0,SW,12.7,27.6,N/A,,Scattered Clouds,230,2014-01-22 18:54:00
1:54 PM,36.0,12.9,39,30.13,10.0,SSW,10.4,-,N/A,,Partly Cloudy,210,2014-01-22 19:54:00
2:54 PM,37.9,12.9,36,30.12,10.0,SW,11.5,16.1,N/A,,Partly Cloudy,230,2014-01-22 20:54:00
3:54 PM,37.9,14.0,38,30.13,10.0,WSW,6.9,-,N/A,,Partly Cloudy,240,2014-01-22 21:54:00
4:54 PM,37.0,15.1,41,30.14,10.0,SW,8.1,-,N/A,,Partly Cloudy,220,2014-01-22 22:54:00
5:54 PM,36.0,16.0,44,30.16,10.0,Calm,Calm,-,N/A,,Partly Cloudy,0,2014-01-22 23:54:00
6:54 PM,32.0,16.0,52,30.18,10.0,SSW,4.6,-,N/A,,Clear,200,2014-01-23 00:54:00
7:54 PM,30.9,16.0,54,30.19,10.0,South,3.5,-,N/A,,Clear,180,2014-01-23 01:54:00
8:54 PM,30.0,17.1,59,30.20,10.0,Calm,Calm,-,N/A,,Clear,0,2014-01-23 02:54:00
9:54 PM,30.9,17.1,57,30.22,10.0,Calm,Calm,-,N/A,,Clear,0,2014-01-23 03:54:00
10:54 PM,28.9,18.0,64,30.23,10.0,Calm,Calm,-,N/A,,Clear,0,2014-01-23 04:54:00
11:54 PM,28.0,18.0,66,30.25,10.0,NNW,3.5,-,N/A,,Partly Cloudy,330,2014-01-23 05:54:00